KLM207 EHAM-KJFK

Flight info

Callsign KLM207
Flight time 7h 24m
Altitude 34000
Route BERGI L602 NALAX L46 GETNO DCT NIBOG DCT ETARI/M084F340 DCT 5630N02000W 5630N03000W 5530N04000W 5330N05000W DCT PELTU/N0491F340 DCT TOPPS DCT ENE PARCH4
Aircraft B77W/H-SDE1E2E3FGHIJ2J3J4J5M1RWXY/LB1D1

Departure

Time 2026-05-08 17:02
Airport Amsterdam Airport Schiphol (EHAM)

Arrival

Time 2026-05-09 00:27
Airport John F. Kennedy International Airport (KJFK)
Time Latitude Longitude Altitude Speed Heading
2026-05-08 16:21 52.31009 4.77355 5 ft 0 kts 185°
2026-05-08 16:42 52.31010 4.77355 5 ft 1 kts 185°
2026-05-08 16:42 52.31025 4.77357 5 ft 1 kts 185°
2026-05-08 16:43 52.31034 4.77359 5 ft 2 kts 179°
2026-05-08 16:43 52.31049 4.77354 5 ft 2 kts 154°
2026-05-08 16:43 52.31062 4.77340 5 ft 2 kts 134°
2026-05-08 16:43 52.31070 4.77321 5 ft 2 kts 114°
2026-05-08 16:44 52.31074 4.77299 5 ft 1 kts 96°
2026-05-08 16:44 52.31074 4.77294 5 ft 0 kts 93°
2026-05-08 16:45 52.31074 4.77296 5 ft 0 kts 93°
2026-05-08 16:46 52.31072 4.77348 5 ft 8 kts 93°
2026-05-08 16:46 52.31055 4.77468 5 ft 13 kts 119°
2026-05-08 16:46 52.31049 4.77606 5 ft 15 kts 33°
2026-05-08 16:46 52.31175 4.77637 5 ft 20 kts
2026-05-08 16:47 52.31314 4.77653 5 ft 20 kts
2026-05-08 16:47 52.31461 4.77630 5 ft 21 kts 330°
2026-05-08 16:47 52.31562 4.77464 5 ft 20 kts 297°
2026-05-08 16:47 52.31573 4.77240 5 ft 19 kts 268°
2026-05-08 16:48 52.31564 4.77037 5 ft 15 kts 264°
2026-05-08 16:48 52.31554 4.76873 5 ft 13 kts 264°
2026-05-08 16:48 52.31548 4.76725 5 ft 12 kts 268°
2026-05-08 16:48 52.31546 4.76594 5 ft 11 kts 269°
2026-05-08 16:49 52.31544 4.76476 5 ft 9 kts 269°
2026-05-08 16:49 52.31542 4.76369 5 ft 8 kts 268°
2026-05-08 16:49 52.31540 4.76273 5 ft 8 kts 268°
2026-05-08 16:49 52.31537 4.76179 5 ft 9 kts 266°
2026-05-08 16:50 52.31531 4.76060 5 ft 11 kts 264°
2026-05-08 16:50 52.31517 4.75921 5 ft 13 kts 257°
2026-05-08 16:50 52.31509 4.75767 5 ft 14 kts 273°
2026-05-08 16:50 52.31513 4.75589 5 ft 17 kts 269°
2026-05-08 16:51 52.31507 4.75360 5 ft 22 kts 266°
2026-05-08 16:51 52.31497 4.75091 5 ft 23 kts 266°
2026-05-08 16:51 52.31486 4.74825 5 ft 22 kts 267°
2026-05-08 16:51 52.31479 4.74578 5 ft 21 kts 267°
2026-05-08 16:52 52.31473 4.74358 5 ft 16 kts 276°
2026-05-08 16:52 52.31545 4.74289 5 ft 12 kts 359°
2026-05-08 16:52 52.31632 4.74297 5 ft 12 kts
2026-05-08 16:52 52.31720 4.74306 5 ft 12 kts
2026-05-08 16:53 52.31900 4.74323 5 ft 13 kts
2026-05-08 16:53 52.31994 4.74331 5 ft 14 kts 359°
2026-05-08 16:53 52.32031 4.74203 5 ft 15 kts 272°
2026-05-08 16:54 52.32036 4.74018 5 ft 17 kts 273°
2026-05-08 16:54 52.32042 4.73809 5 ft 19 kts 272°
2026-05-08 16:54 52.32047 4.73577 5 ft 21 kts 272°
2026-05-08 16:54 52.32095 4.73346 5 ft 22 kts 313°
2026-05-08 16:55 52.32216 4.73166 5 ft 24 kts 319°
2026-05-08 16:55 52.32348 4.72980 5 ft 25 kts 320°
2026-05-08 16:55 52.32490 4.72785 5 ft 27 kts 319°
2026-05-08 16:55 52.32634 4.72581 5 ft 27 kts 319°
2026-05-08 16:56 52.32742 4.72395 5 ft 22 kts 311°
2026-05-08 16:56 52.32846 4.72199 5 ft 23 kts 311°
2026-05-08 16:56 52.32957 4.71992 5 ft 24 kts 311°
2026-05-08 16:56 52.33068 4.71778 5 ft 24 kts 310°
2026-05-08 16:57 52.33146 4.71563 5 ft 21 kts 266°
2026-05-08 16:57 52.33061 4.71404 5 ft 19 kts 218°
2026-05-08 16:57 52.32959 4.71254 5 ft 20 kts 225°
2026-05-08 16:57 52.32894 4.71148 5 ft 9 kts 226°
2026-05-08 16:58 52.32881 4.71128 5 ft 1 kts 226°
2026-05-08 16:58 52.32872 4.71105 5 ft 3 kts 242°
2026-05-08 16:58 52.32870 4.71098 5 ft 0 kts 248°
2026-05-08 16:59 52.32870 4.71097 5 ft 0 kts 248°
2026-05-08 16:59 52.32869 4.71092 5 ft 2 kts 250°
2026-05-08 16:59 52.32861 4.71025 5 ft 10 kts 268°
2026-05-08 17:00 52.32874 4.70914 5 ft 8 kts 309°
2026-05-08 17:00 52.32922 4.70888 5 ft 3 kts
2026-05-08 17:00 52.32923 4.70888 5 ft 0 kts
2026-05-08 17:01 52.33161 4.70915 5 ft 70 kts
2026-05-08 17:02 52.33880 4.70969 6 ft 135 kts
2026-05-08 17:02 52.35010 4.71074 31 ft 188 kts
2026-05-08 17:02 52.36415 4.71227 390 ft 210 kts
2026-05-08 17:02 52.37882 4.71393 1239 ft 216 kts
2026-05-08 17:03 52.39336 4.71550 2043 ft 213 kts
2026-05-08 17:03 52.40836 4.71718 2572 ft 223 kts
2026-05-08 17:03 52.42445 4.71850 2930 ft 241 kts
2026-05-08 17:03 52.44183 4.72009 3372 ft 260 kts
2026-05-08 17:04 52.46030 4.72185 3951 ft 272 kts
2026-05-08 17:04 52.47926 4.72370 4762 ft 275 kts
2026-05-08 17:04 52.49838 4.72557 5505 ft 280 kts
2026-05-08 17:04 52.51782 4.72744 6240 ft 284 kts
2026-05-08 17:05 52.53767 4.72934 6977 ft 288 kts
2026-05-08 17:05 52.55761 4.73128 7706 ft 292 kts
2026-05-08 17:05 52.57797 4.72982 8399 ft 291 kts 342°
2026-05-08 17:05 52.59557 4.71536 9060 ft 287 kts 316°
2026-05-08 17:06 52.60900 4.69099 9781 ft 285 kts 304°
2026-05-08 17:06 52.62053 4.66467 10362 ft 293 kts 302°
2026-05-08 17:06 52.63264 4.63577 10665 ft 313 kts 302°
2026-05-08 17:06 52.64546 4.60526 10964 ft 333 kts 302°
2026-05-08 17:07 52.65900 4.57306 11276 ft 352 kts 302°
2026-05-08 17:07 52.67319 4.53927 11591 ft 371 kts 302°
2026-05-08 17:07 52.68826 4.50332 12050 ft 385 kts 302°
2026-05-08 17:07 52.70354 4.46692 12826 ft 389 kts 302°
2026-05-08 17:08 52.71891 4.43025 13612 ft 393 kts 302°
2026-05-08 17:08 52.73454 4.39289 14383 ft 399 kts 302°
2026-05-08 17:08 52.75001 4.35483 15154 ft 402 kts 298°
2026-05-08 17:08 52.76400 4.31454 15951 ft 406 kts 296°
2026-05-08 17:09 52.77782 4.27380 16724 ft 411 kts 296°
2026-05-08 17:09 52.79176 4.23262 17472 ft 416 kts 295°
2026-05-08 17:09 52.80593 4.19072 18213 ft 420 kts 295°
2026-05-08 17:09 52.82031 4.14816 18949 ft 425 kts 295°
2026-05-08 17:10 52.83458 4.10587 19667 ft 430 kts 295°
2026-05-08 17:10 52.84923 4.06238 20378 ft 434 kts 295°
2026-05-08 17:10 52.86400 4.01845 21063 ft 439 kts 295°
2026-05-08 17:10 52.87882 3.97431 21726 ft 444 kts 295°
2026-05-08 17:11 52.89366 3.93003 22376 ft 448 kts 295°
2026-05-08 17:11 52.90878 3.88485 23012 ft 453 kts 295°
2026-05-08 17:11 52.92417 3.83878 23643 ft 457 kts 295°
2026-05-08 17:11 52.93939 3.79311 24253 ft 462 kts 295°
2026-05-08 17:12 52.95504 3.74609 24877 ft 466 kts 295°
2026-05-08 17:12 52.97070 3.69894 25481 ft 470 kts 294°
2026-05-08 17:12 52.98652 3.65124 26061 ft 475 kts 294°
2026-05-08 17:12 53.00238 3.60337 26632 ft 480 kts 294°
2026-05-08 17:13 53.01864 3.55418 27200 ft 484 kts 294°
2026-05-08 17:13 53.03466 3.50555 27745 ft 489 kts 294°
2026-05-08 17:13 53.05115 3.45537 28290 ft 494 kts 294°
2026-05-08 17:13 53.06758 3.40528 28821 ft 498 kts 294°
2026-05-08 17:14 53.08425 3.35433 29369 ft 502 kts 293°
2026-05-08 17:14 53.09848 3.30228 30076 ft 494 kts 284°
2026-05-08 17:14 53.10799 3.24783 30845 ft 485 kts 277°
2026-05-08 17:14 53.11542 3.19381 31556 ft 483 kts 276°
2026-05-08 17:15 53.12269 3.13948 32229 ft 481 kts 276°
2026-05-08 17:15 53.13000 3.08449 32874 ft 480 kts 276°
2026-05-08 17:15 53.13710 3.03077 33516 ft 477 kts 276°
2026-05-08 17:15 53.14429 2.97609 34006 ft 478 kts 276°
2026-05-08 17:16 53.15855 2.86711 34046 ft 472 kts 276°
2026-05-08 17:16 53.17228 2.76125 34036 ft 469 kts 277°
2026-05-08 17:17 53.18600 2.65455 33965 ft 467 kts 277°
2026-05-08 17:17 53.19951 2.54864 33953 ft 469 kts 277°
2026-05-08 17:18 53.21302 2.44198 33970 ft 469 kts 277°
2026-05-08 17:18 53.22644 2.33525 33974 ft 468 kts 276°
2026-05-08 17:19 53.23965 2.22935 33974 ft 468 kts 276°
2026-05-08 17:19 53.25287 2.12253 33955 ft 468 kts 277°
2026-05-08 17:20 53.26588 2.01652 33936 ft 468 kts 277°
2026-05-08 17:20 53.27888 1.90986 33934 ft 469 kts 277°
2026-05-08 17:21 53.29177 1.80323 33931 ft 469 kts 277°
2026-05-08 17:21 53.30455 1.69662 33930 ft 468 kts 277°
2026-05-08 17:22 53.31723 1.59001 33936 ft 468 kts 277°
2026-05-08 17:22 53.32998 1.48386 33934 ft 469 kts 279°
2026-05-08 17:23 53.34569 1.37701 33935 ft 470 kts 280°
2026-05-08 17:23 53.36119 1.27136 33937 ft 469 kts 279°
2026-05-08 17:24 53.37655 1.16528 33938 ft 469 kts 279°
2026-05-08 17:24 53.39175 1.05919 33938 ft 469 kts 279°
2026-05-08 17:25 53.40684 0.95290 33938 ft 469 kts 279°
2026-05-08 17:25 53.42175 0.84708 33937 ft 469 kts 279°
2026-05-08 17:26 53.43658 0.74097 33935 ft 469 kts 279°
2026-05-08 17:26 53.45135 0.63458 33924 ft 469 kts 279°
2026-05-08 17:27 53.46595 0.52862 33914 ft 470 kts 279°
2026-05-08 17:27 53.48053 0.42200 33911 ft 469 kts 279°
2026-05-08 17:28 53.49500 0.31548 33912 ft 469 kts 279°
2026-05-08 17:28 53.50934 0.20917 33913 ft 470 kts 279°
2026-05-08 17:29 53.52356 0.10285 33913 ft 470 kts 279°
2026-05-08 17:29 53.53782 -0.00440 33913 ft 470 kts 279°
2026-05-08 17:30 53.55193 -0.11144 33904 ft 471 kts 279°
2026-05-08 17:30 53.56591 -0.21828 33901 ft 473 kts 280°
2026-05-08 17:31 53.58000 -0.32678 33906 ft 474 kts 280°
2026-05-08 17:31 53.59400 -0.43532 33907 ft 474 kts 280°
2026-05-08 17:32 53.60779 -0.54314 33906 ft 474 kts 280°
2026-05-08 17:32 53.62155 -0.65156 33907 ft 474 kts 279°
2026-05-08 17:33 53.63518 -0.75983 33909 ft 474 kts 279°
2026-05-08 17:33 53.64865 -0.86762 33910 ft 474 kts 279°
2026-05-08 17:34 53.66219 -0.97683 33911 ft 474 kts 279°
2026-05-08 17:34 53.67545 -1.08459 33916 ft 474 kts 279°
2026-05-08 17:35 53.68876 -1.19366 33920 ft 474 kts 279°
2026-05-08 17:35 53.70184 -1.30175 33921 ft 474 kts 279°
2026-05-08 17:36 53.71489 -1.41051 33922 ft 474 kts 279°
2026-05-08 17:36 53.72780 -1.51894 33923 ft 474 kts 279°
2026-05-08 17:37 53.74050 -1.62820 33925 ft 474 kts 279°
2026-05-08 17:37 53.75240 -1.73758 33934 ft 474 kts 278°
2026-05-08 17:38 53.76423 -1.84729 33939 ft 474 kts 278°
2026-05-08 17:38 53.77584 -1.95575 33939 ft 474 kts 278°
2026-05-08 17:39 53.78751 -2.06555 33940 ft 474 kts 278°
2026-05-08 17:39 53.79898 -2.17432 33942 ft 474 kts 278°
2026-05-08 17:40 53.81048 -2.28449 33944 ft 474 kts 278°
2026-05-08 17:40 53.82183 -2.39424 33943 ft 474 kts 278°
2026-05-08 17:41 53.83317 -2.50493 33944 ft 474 kts 278°
2026-05-08 17:41 53.84431 -2.61452 33949 ft 474 kts 278°
2026-05-08 17:42 53.85535 -2.72437 33956 ft 474 kts 277°
2026-05-08 17:42 53.86631 -2.83448 33960 ft 474 kts 277°
2026-05-08 17:43 53.87712 -2.94407 33962 ft 474 kts 277°
2026-05-08 17:43 53.88790 -3.05440 33963 ft 474 kts 277°
2026-05-08 17:44 53.89854 -3.16441 33964 ft 475 kts 277°
2026-05-08 17:44 53.90915 -3.27526 33967 ft 475 kts 277°
2026-05-08 17:45 53.91964 -3.38591 33970 ft 475 kts 277°
2026-05-08 17:45 53.93050 -3.49569 33967 ft 476 kts 282°
2026-05-08 17:46 53.95038 -3.60297 33972 ft 478 kts 287°
2026-05-08 17:46 53.97139 -3.70978 33974 ft 478 kts 286°
2026-05-08 17:47 53.99223 -3.81678 33976 ft 478 kts 287°
2026-05-08 17:47 54.00943 -3.90581 33977 ft 478 kts 287°
2026-05-08 17:48 54.03349 -4.03125 33978 ft 478 kts 287°
2026-05-08 17:48 54.05402 -4.13900 33980 ft 478 kts 287°
2026-05-08 17:49 54.07430 -4.24611 33981 ft 478 kts 287°
2026-05-08 17:49 54.09462 -4.35400 33981 ft 478 kts 287°
2026-05-08 17:50 54.11472 -4.46144 33977 ft 478 kts 287°
2026-05-08 17:50 54.13479 -4.56935 33977 ft 478 kts 287°
2026-05-08 17:51 54.15471 -4.67705 33982 ft 478 kts 286°
2026-05-08 17:51 54.17473 -4.78591 33987 ft 478 kts 286°
2026-05-08 17:52 54.19441 -4.89357 33989 ft 478 kts 286°
2026-05-08 17:53 54.22379 -5.05547 33990 ft 477 kts 287°
2026-05-08 17:53 54.24326 -5.16351 33991 ft 477 kts 287°
2026-05-08 17:54 54.26268 -5.27198 33991 ft 477 kts 287°
2026-05-08 17:54 54.28199 -5.38047 33991 ft 477 kts 287°
2026-05-08 17:55 54.30117 -5.48888 33990 ft 477 kts 287°
2026-05-08 17:55 54.32024 -5.59723 33991 ft 478 kts 287°
2026-05-08 17:56 54.33927 -5.70609 33991 ft 478 kts 286°
2026-05-08 17:56 54.35821 -5.81510 33989 ft 478 kts 286°
2026-05-08 17:57 54.37703 -5.92409 33986 ft 478 kts 286°
2026-05-08 17:57 54.39566 -6.03265 33984 ft 478 kts 286°
2026-05-08 17:58 54.41432 -6.14204 33988 ft 478 kts 286°
2026-05-08 17:58 54.43280 -6.25101 33993 ft 478 kts 286°
2026-05-08 17:59 54.45127 -6.36061 33996 ft 479 kts 286°
2026-05-08 17:59 54.46956 -6.46987 33998 ft 479 kts 287°
2026-05-08 18:00 54.48792 -6.58017 33999 ft 479 kts 287°
2026-05-08 18:00 54.51522 -6.74558 34007 ft 479 kts 286°
2026-05-08 18:01 54.53332 -6.85615 34010 ft 479 kts 286°
2026-05-08 18:01 54.55125 -6.96636 34009 ft 479 kts 287°
2026-05-08 18:02 54.56605 -7.05790 34007 ft 479 kts 287°
2026-05-08 18:02 54.58674 -7.18665 34006 ft 479 kts 287°
2026-05-08 18:03 54.60438 -7.29722 34004 ft 480 kts 287°
2026-05-08 18:03 54.62194 -7.40800 34003 ft 480 kts 287°
2026-05-08 18:04 54.63943 -7.51912 34001 ft 480 kts 287°
2026-05-08 18:04 54.65678 -7.63002 34003 ft 480 kts 287°
2026-05-08 18:05 54.67405 -7.74120 34003 ft 481 kts 287°
2026-05-08 18:05 54.69123 -7.85259 34002 ft 481 kts 287°
2026-05-08 18:06 54.70826 -7.96369 34001 ft 481 kts 287°
2026-05-08 18:06 54.72527 -8.07541 34000 ft 481 kts 287°
2026-05-08 18:07 54.74205 -8.18648 34007 ft 481 kts 287°
2026-05-08 18:07 54.75887 -8.29847 34009 ft 481 kts 287°
2026-05-08 18:08 54.77552 -8.41018 34006 ft 481 kts 287°
2026-05-08 18:08 54.79209 -8.52211 34007 ft 481 kts 287°
2026-05-08 18:09 54.80856 -8.63416 34010 ft 481 kts 287°
2026-05-08 18:09 54.82496 -8.74658 34012 ft 482 kts 287°
2026-05-08 18:10 54.84124 -8.85894 34014 ft 482 kts 287°
2026-05-08 18:10 54.85739 -8.97122 34015 ft 481 kts 287°
2026-05-08 18:11 54.87342 -9.08338 34014 ft 482 kts 287°
2026-05-08 18:11 54.88935 -9.19573 34014 ft 482 kts 287°
2026-05-08 18:12 54.90522 -9.30854 34014 ft 482 kts 287°
2026-05-08 18:12 54.92102 -9.42158 34014 ft 482 kts 287°
2026-05-08 18:13 54.93669 -9.53454 34013 ft 482 kts 287°
2026-05-08 18:13 54.95217 -9.64707 34014 ft 482 kts 287°
2026-05-08 18:14 54.96768 -9.76053 34013 ft 482 kts 286°
2026-05-08 18:14 54.98299 -9.87349 34014 ft 482 kts 287°
2026-05-08 18:15 54.99827 -9.98740 34015 ft 482 kts 286°
2026-05-08 18:15 55.01226 -10.10121 34016 ft 482 kts 285°
2026-05-08 18:16 55.02598 -10.21493 34021 ft 483 kts 285°
2026-05-08 18:16 55.03967 -10.32943 34021 ft 483 kts 286°
2026-05-08 18:17 55.05316 -10.44329 34015 ft 483 kts 286°
2026-05-08 18:17 55.06657 -10.55744 34015 ft 483 kts 286°
2026-05-08 18:18 55.07993 -10.67212 34015 ft 483 kts 285°
2026-05-08 18:18 55.09315 -10.78659 34016 ft 483 kts 285°
2026-05-08 18:19 55.10633 -10.90186 34026 ft 483 kts 285°
2026-05-08 18:19 55.11940 -11.01719 34027 ft 483 kts 285°
2026-05-08 18:20 55.13238 -11.13265 34029 ft 483 kts 285°
2026-05-08 18:20 55.14516 -11.24745 34029 ft 483 kts 285°
2026-05-08 18:21 55.15786 -11.36257 34030 ft 483 kts 285°
2026-05-08 18:21 55.17047 -11.47785 34030 ft 483 kts 286°
2026-05-08 18:22 55.18290 -11.59257 34032 ft 482 kts 286°
2026-05-08 18:22 55.19521 -11.70737 34030 ft 483 kts 285°
2026-05-08 18:23 55.20747 -11.82273 34030 ft 482 kts 285°
2026-05-08 18:23 55.21961 -11.93806 34031 ft 482 kts 285°
2026-05-08 18:24 55.23164 -12.05336 34031 ft 482 kts 285°
2026-05-08 18:24 55.24348 -12.16798 34031 ft 482 kts 285°
2026-05-08 18:25 55.25528 -12.28328 34032 ft 481 kts 285°
2026-05-08 18:25 55.26688 -12.39788 34033 ft 481 kts 285°
2026-05-08 18:26 55.27848 -12.51342 34029 ft 481 kts 285°
2026-05-08 18:26 55.28991 -12.62855 34029 ft 481 kts 285°
2026-05-08 18:27 55.29930 -12.72407 34028 ft 482 kts 285°
2026-05-08 18:27 55.31248 -12.85945 34028 ft 482 kts 285°
2026-05-08 18:28 55.32355 -12.97446 34029 ft 482 kts 285°
2026-05-08 18:28 55.33461 -13.09048 34030 ft 482 kts 285°
2026-05-08 18:29 55.34549 -13.20584 34032 ft 481 kts 285°
2026-05-08 18:29 55.35626 -13.32129 34032 ft 481 kts 285°
2026-05-08 18:30 55.36694 -13.43700 34034 ft 481 kts 285°
2026-05-08 18:30 55.37744 -13.55193 34034 ft 480 kts 285°
2026-05-08 18:31 55.38790 -13.66779 34035 ft 480 kts 284°
2026-05-08 18:31 55.39818 -13.78277 34034 ft 479 kts 284°
2026-05-08 18:32 55.40838 -13.89829 34033 ft 479 kts 284°
2026-05-08 18:32 55.41845 -14.01357 34034 ft 478 kts 284°
2026-05-08 18:33 55.42837 -14.12839 34035 ft 477 kts 284°
2026-05-08 18:33 55.43826 -14.24420 34035 ft 477 kts 284°
2026-05-08 18:34 55.44790 -14.35835 34028 ft 476 kts 284°
2026-05-08 18:34 55.45752 -14.47362 34023 ft 477 kts 284°
2026-05-08 18:35 55.46703 -14.58892 34021 ft 477 kts 284°
2026-05-08 18:35 55.47643 -14.70426 34020 ft 478 kts 283°
2026-05-08 18:36 55.48572 -14.81966 34020 ft 478 kts 283°
2026-05-08 18:36 55.49488 -14.93489 34021 ft 479 kts 283°
2026-05-08 18:37 55.50925 -15.04847 34019 ft 469 kts 296°
2026-05-08 18:37 55.53350 -15.15405 34022 ft 468 kts 297°
2026-05-08 18:38 55.55781 -15.26025 34021 ft 468 kts 297°
2026-05-08 18:38 55.58189 -15.36712 34016 ft 468 kts 297°
2026-05-08 18:39 55.60555 -15.47334 34008 ft 468 kts 296°
2026-05-08 18:39 55.62915 -15.58009 34000 ft 467 kts 296°
2026-05-08 18:40 55.65252 -15.68656 33994 ft 467 kts 295°
2026-05-08 18:40 55.67581 -15.79331 33993 ft 466 kts 295°
2026-05-08 18:41 55.69896 -15.90000 33994 ft 465 kts 295°
2026-05-08 18:41 55.72206 -16.00703 33994 ft 465 kts 295°
2026-05-08 18:42 55.74492 -16.11353 33993 ft 465 kts 295°
2026-05-08 18:42 55.76766 -16.22003 33993 ft 464 kts 295°
2026-05-08 18:43 55.79042 -16.32715 33992 ft 465 kts 295°
2026-05-08 18:43 55.81300 -16.43403 33992 ft 465 kts 295°
2026-05-08 18:44 55.83428 -16.53528 33990 ft 465 kts 295°
2026-05-08 18:44 55.85677 -16.64279 33990 ft 465 kts 295°
2026-05-08 18:45 55.87928 -16.75101 33989 ft 466 kts 294°
2026-05-08 18:45 55.90145 -16.85818 33989 ft 467 kts 294°
2026-05-08 18:46 55.92387 -16.96711 33989 ft 467 kts 294°
2026-05-08 18:46 55.94602 -17.07536 33990 ft 468 kts 294°
2026-05-08 18:47 55.96815 -17.18408 33992 ft 468 kts 294°
2026-05-08 18:47 55.99014 -17.29270 33993 ft 468 kts 294°
2026-05-08 18:48 56.01210 -17.40182 33994 ft 469 kts 294°
2026-05-08 18:48 56.03412 -17.51181 33994 ft 469 kts 294°
2026-05-08 18:49 56.05584 -17.62087 33995 ft 468 kts 294°
2026-05-08 18:49 56.07745 -17.73004 33995 ft 467 kts 292°
2026-05-08 18:50 56.09893 -17.83915 33995 ft 467 kts 292°
2026-05-08 18:50 56.12037 -17.94863 34002 ft 468 kts 292°
2026-05-08 18:51 56.14184 -18.05896 34004 ft 469 kts 292°
2026-05-08 18:51 56.16317 -18.16913 34004 ft 469 kts 292°
2026-05-08 18:52 56.18441 -18.27946 34003 ft 469 kts 292°
2026-05-08 18:52 56.20545 -18.38941 34002 ft 468 kts 292°
2026-05-08 18:53 56.22635 -18.49920 34002 ft 468 kts 292°
2026-05-08 18:53 56.24730 -18.60997 34002 ft 467 kts 292°
2026-05-08 18:54 56.26795 -18.71974 34002 ft 467 kts 291°
2026-05-08 18:54 56.28863 -18.83037 34002 ft 466 kts 291°
2026-05-08 18:55 56.31927 -18.99546 34002 ft 466 kts 291°
2026-05-08 18:56 56.33959 -19.10569 34002 ft 466 kts 291°
2026-05-08 18:56 56.35988 -19.21645 34000 ft 466 kts 291°
2026-05-08 18:57 56.37999 -19.32686 33997 ft 465 kts 291°
2026-05-08 18:57 56.39992 -19.43691 33995 ft 466 kts 291°
2026-05-08 18:58 56.41987 -19.54780 33994 ft 467 kts 291°
2026-05-08 18:58 56.43991 -19.65982 33993 ft 467 kts 290°
2026-05-08 18:59 56.45964 -19.77082 33993 ft 468 kts 290°
2026-05-08 18:59 56.47940 -19.88262 33992 ft 468 kts 290°
2026-05-08 19:00 56.49690 -19.99536 33988 ft 472 kts 281°
2026-05-08 19:00 56.50343 -20.11364 33990 ft 473 kts 277°
2026-05-08 19:01 56.50854 -20.23211 33990 ft 473 kts 277°
2026-05-08 19:01 56.51328 -20.34993 33990 ft 474 kts 276°
2026-05-08 19:02 56.51781 -20.46848 33989 ft 474 kts 276°
2026-05-08 19:02 56.52216 -20.58697 33985 ft 473 kts 276°
2026-05-08 19:03 56.52635 -20.70553 33981 ft 473 kts 275°
2026-05-08 19:03 56.53041 -20.82385 33980 ft 472 kts 275°
2026-05-08 19:04 56.53432 -20.94174 33981 ft 472 kts 275°
2026-05-08 19:04 56.53813 -21.05991 33981 ft 472 kts 275°
2026-05-08 19:05 56.54181 -21.17772 33981 ft 472 kts 275°
2026-05-08 19:05 56.54539 -21.29613 33981 ft 472 kts 275°
2026-05-08 19:06 56.54886 -21.41448 33982 ft 471 kts 275°
2026-05-08 19:06 56.55220 -21.53226 33982 ft 472 kts 275°
2026-05-08 19:07 56.55544 -21.65037 33982 ft 472 kts 274°
2026-05-08 19:07 56.55858 -21.76904 33983 ft 473 kts 274°
2026-05-08 19:08 56.56159 -21.88728 33983 ft 473 kts 274°
2026-05-08 19:08 56.56450 -22.00597 33983 ft 473 kts 274°
2026-05-08 19:09 56.56731 -22.12510 33981 ft 474 kts 274°
2026-05-08 19:09 56.57000 -22.24406 33986 ft 473 kts 274°
2026-05-08 19:10 56.57258 -22.36308 33995 ft 473 kts 274°
2026-05-08 19:10 56.57502 -22.48137 33996 ft 473 kts 274°
2026-05-08 19:11 56.57736 -22.59998 33995 ft 472 kts 274°
2026-05-08 19:11 56.57959 -22.71860 33995 ft 472 kts 273°
2026-05-08 19:12 56.58170 -22.83704 33995 ft 471 kts 273°
2026-05-08 19:12 56.58369 -22.95499 33995 ft 470 kts 273°
2026-05-08 19:13 56.58557 -23.07296 33994 ft 469 kts 273°
2026-05-08 19:13 56.58733 -23.19038 33994 ft 469 kts 273°
2026-05-08 19:14 56.58899 -23.30831 33994 ft 468 kts 273°
2026-05-08 19:14 56.59053 -23.42577 33994 ft 467 kts 274°
2026-05-08 19:15 56.59196 -23.54304 33995 ft 467 kts 274°
2026-05-08 19:15 56.59327 -23.66020 33994 ft 466 kts 272°
2026-05-08 19:16 56.59448 -23.77799 33997 ft 466 kts 272°
2026-05-08 19:16 56.59556 -23.89465 34002 ft 465 kts 273°
2026-05-08 19:17 56.59655 -24.01159 34009 ft 464 kts 273°
2026-05-08 19:17 56.59742 -24.12850 34010 ft 464 kts 273°
2026-05-08 19:18 56.59819 -24.24492 34008 ft 464 kts 272°
2026-05-08 19:18 56.59884 -24.36280 34008 ft 464 kts 272°
2026-05-08 19:19 56.59938 -24.47885 34011 ft 464 kts 272°
2026-05-08 19:19 56.59981 -24.59590 34025 ft 464 kts 272°
2026-05-08 19:20 56.60014 -24.71269 34042 ft 465 kts 271°
2026-05-08 19:20 56.60035 -24.82906 34044 ft 465 kts 271°
2026-05-08 19:21 56.60046 -24.94626 34042 ft 465 kts 271°
2026-05-08 19:21 56.60046 -25.06272 34042 ft 465 kts 271°
2026-05-08 19:22 56.60034 -25.18045 34042 ft 465 kts 271°
2026-05-08 19:22 56.60012 -25.29716 34042 ft 465 kts 271°
2026-05-08 19:23 56.59979 -25.41334 34042 ft 465 kts 271°
2026-05-08 19:23 56.59935 -25.53062 34042 ft 465 kts 271°
2026-05-08 19:24 56.59880 -25.64703 34042 ft 465 kts 271°
2026-05-08 19:24 56.59813 -25.76402 34044 ft 465 kts 270°
2026-05-08 19:25 56.59736 -25.88119 34045 ft 465 kts 270°
2026-05-08 19:25 56.59648 -25.99777 34045 ft 465 kts 270°
2026-05-08 19:26 56.59549 -26.11502 34043 ft 465 kts 270°
2026-05-08 19:26 56.59439 -26.23157 34043 ft 465 kts 270°
2026-05-08 19:27 56.59318 -26.34831 34045 ft 465 kts 270°
2026-05-08 19:27 56.59187 -26.46477 34046 ft 465 kts 270°
2026-05-08 19:28 56.59044 -26.58161 34045 ft 465 kts 270°
2026-05-08 19:28 56.58890 -26.69826 34047 ft 465 kts 269°
2026-05-08 19:29 56.58726 -26.81513 34047 ft 465 kts 269°
2026-05-08 19:29 56.58550 -26.93188 34047 ft 465 kts 269°
2026-05-08 19:30 56.58362 -27.04945 34047 ft 465 kts 269°
2026-05-08 19:30 56.58165 -27.16618 34047 ft 465 kts 269°
2026-05-08 19:31 56.57957 -27.28241 34047 ft 466 kts 269°
2026-05-08 19:31 56.57737 -27.39968 34052 ft 465 kts 268°
2026-05-08 19:32 56.57507 -27.51616 34057 ft 465 kts 268°
2026-05-08 19:32 56.57265 -27.63319 34058 ft 465 kts 268°
2026-05-08 19:33 56.57015 -27.74965 34060 ft 465 kts 267°
2026-05-08 19:33 56.56752 -27.86620 34060 ft 465 kts 267°
2026-05-08 19:34 56.56476 -27.98318 34061 ft 466 kts 267°
2026-05-08 19:34 56.56192 -28.09962 34061 ft 466 kts 267°
2026-05-08 19:35 56.55895 -28.21659 34061 ft 466 kts 267°
2026-05-08 19:35 56.55587 -28.33367 34061 ft 465 kts 267°
2026-05-08 19:36 56.55269 -28.45012 34063 ft 465 kts 267°
2026-05-08 19:36 56.54939 -28.56684 34063 ft 465 kts 267°
2026-05-08 19:37 56.54601 -28.68334 34064 ft 464 kts 266°
2026-05-08 19:37 56.54249 -28.80020 34065 ft 464 kts 266°
2026-05-08 19:38 56.53890 -28.91608 34064 ft 463 kts 266°
2026-05-08 19:38 56.53519 -29.03228 34064 ft 463 kts 266°
2026-05-08 19:39 56.53137 -29.14818 34064 ft 462 kts 266°
2026-05-08 19:39 56.52744 -29.26426 34063 ft 462 kts 267°
2026-05-08 19:40 56.52343 -29.37948 34063 ft 461 kts 267°
2026-05-08 19:40 56.51931 -29.49506 34063 ft 461 kts 267°
2026-05-08 19:41 56.51509 -29.61022 34062 ft 461 kts 267°
2026-05-08 19:41 56.51077 -29.72517 34065 ft 460 kts 266°
2026-05-08 19:42 56.50632 -29.84073 34065 ft 460 kts 266°
2026-05-08 19:42 56.50178 -29.95574 34065 ft 459 kts 266°
2026-05-08 19:43 56.49572 -30.07034 34067 ft 459 kts 265°
2026-05-08 19:43 56.48910 -30.18484 34067 ft 459 kts 265°
2026-05-08 19:44 56.48235 -30.29882 34066 ft 459 kts 265°
2026-05-08 19:44 56.47542 -30.41357 34066 ft 459 kts 265°
2026-05-08 19:45 56.46842 -30.52761 34068 ft 459 kts 265°
2026-05-08 19:45 56.46129 -30.64181 34081 ft 459 kts 265°
2026-05-08 19:46 56.45408 -30.75577 34098 ft 459 kts 264°
2026-05-08 19:46 56.44300 -30.92718 34099 ft 459 kts 264°
2026-05-08 19:47 56.43547 -31.04165 34097 ft 459 kts 264°
2026-05-08 19:47 56.42790 -31.15516 34097 ft 459 kts 264°
2026-05-08 19:48 56.42018 -31.26925 34096 ft 459 kts 264°
2026-05-08 19:48 56.41235 -31.38331 34096 ft 459 kts 264°
2026-05-08 19:49 56.40448 -31.49659 34095 ft 458 kts 264°
2026-05-08 19:49 56.39645 -31.61050 34095 ft 458 kts 264°
2026-05-08 19:50 56.38830 -31.72447 34097 ft 458 kts 263°
2026-05-08 19:50 56.38008 -31.83810 34097 ft 457 kts 263°
2026-05-08 19:51 56.37175 -31.95162 34096 ft 457 kts 263°
2026-05-08 19:51 56.36338 -32.06437 34096 ft 457 kts 263°
2026-05-08 19:52 56.35486 -32.17756 34095 ft 457 kts 263°
2026-05-08 19:52 56.34624 -32.29081 34094 ft 457 kts 263°
2026-05-08 19:53 56.33754 -32.40353 34093 ft 457 kts 263°
2026-05-08 19:53 56.32876 -32.51603 34093 ft 457 kts 263°
2026-05-08 19:54 56.31981 -32.62935 34092 ft 457 kts 263°
2026-05-08 19:54 56.31076 -32.74258 34095 ft 457 kts 262°
2026-05-08 19:55 56.30155 -32.85640 34095 ft 457 kts 262°
2026-05-08 19:55 56.29224 -32.97022 34095 ft 458 kts 262°
2026-05-08 19:56 56.28289 -33.08305 34094 ft 458 kts 262°
2026-05-08 19:56 56.27336 -33.19681 34094 ft 458 kts 262°
2026-05-08 19:57 56.26382 -33.30950 34094 ft 457 kts 262°
2026-05-08 19:57 56.25411 -33.42278 34093 ft 457 kts 262°
2026-05-08 19:58 56.24440 -33.53495 34093 ft 457 kts 262°
2026-05-08 19:58 56.23450 -33.64795 34093 ft 457 kts 261°
2026-05-08 19:59 56.22454 -33.76041 34095 ft 457 kts 261°
2026-05-08 19:59 56.21451 -33.87251 34095 ft 456 kts 261°
2026-05-08 20:00 56.20433 -33.98504 34095 ft 456 kts 261°
2026-05-08 20:00 56.19413 -34.09672 34094 ft 456 kts 261°
2026-05-08 20:01 56.18383 -34.20828 34093 ft 456 kts 261°
2026-05-08 20:01 56.17333 -34.32081 34092 ft 456 kts 261°
2026-05-08 20:02 56.16283 -34.43225 34091 ft 457 kts 261°
2026-05-08 20:02 56.15214 -34.54443 34091 ft 457 kts 261°
2026-05-08 20:03 56.14141 -34.65610 34089 ft 458 kts 259°
2026-05-08 20:03 56.13052 -34.76819 34091 ft 459 kts 259°
2026-05-08 20:04 56.11947 -34.88083 34091 ft 459 kts 259°
2026-05-08 20:04 56.10829 -34.99372 34090 ft 460 kts 259°
2026-05-08 20:05 56.09705 -35.10613 34089 ft 461 kts 259°
2026-05-08 20:05 56.08568 -35.21870 34089 ft 462 kts 259°
2026-05-08 20:06 56.07413 -35.33199 34089 ft 462 kts 259°
2026-05-08 20:06 56.06256 -35.44439 34088 ft 462 kts 259°
2026-05-08 20:07 56.05082 -35.55743 34089 ft 463 kts 259°
2026-05-08 20:07 56.03899 -35.67016 34089 ft 463 kts 258°
2026-05-08 20:08 56.02705 -35.78294 34091 ft 464 kts 258°
2026-05-08 20:08 56.01503 -35.89548 34090 ft 464 kts 258°
2026-05-08 20:09 56.00288 -36.00821 34091 ft 464 kts 258°
2026-05-08 20:09 55.99061 -36.12091 34091 ft 464 kts 258°
2026-05-08 20:10 55.97816 -36.23444 34090 ft 464 kts 258°
2026-05-08 20:10 55.96569 -36.34696 34090 ft 465 kts 258°
2026-05-08 20:11 55.95309 -36.45972 34090 ft 465 kts 258°
2026-05-08 20:11 55.94036 -36.57255 34090 ft 465 kts 258°
2026-05-08 20:12 55.92762 -36.68462 34090 ft 466 kts 257°
2026-05-08 20:12 55.91466 -36.79761 34090 ft 466 kts 257°
2026-05-08 20:13 55.90158 -36.91063 34089 ft 467 kts 256°
2026-05-08 20:13 55.88848 -37.02293 34093 ft 467 kts 256°
2026-05-08 20:14 55.87505 -37.13699 34093 ft 468 kts 256°
2026-05-08 20:14 55.86156 -37.25067 34093 ft 469 kts 256°
2026-05-08 20:15 55.84803 -37.36372 34118 ft 469 kts 256°
2026-05-08 20:15 55.83437 -37.47692 34158 ft 470 kts 256°
2026-05-08 20:16 55.82052 -37.59067 34177 ft 470 kts 256°
2026-05-08 20:16 55.80661 -37.70404 34177 ft 470 kts 255°
2026-05-08 20:17 55.79268 -37.81662 34173 ft 470 kts 255°
2026-05-08 20:17 55.77851 -37.93022 34172 ft 470 kts 255°
2026-05-08 20:18 55.76424 -38.04375 34171 ft 470 kts 255°
2026-05-08 20:18 55.74981 -38.15755 34171 ft 470 kts 255°
2026-05-08 20:19 55.73541 -38.27032 34170 ft 470 kts 255°
2026-05-08 20:19 55.72084 -38.38345 34170 ft 471 kts 255°
2026-05-08 20:20 55.70616 -38.49648 34169 ft 471 kts 255°
2026-05-08 20:20 55.69142 -38.60921 34169 ft 471 kts 255°
2026-05-08 20:21 55.67654 -38.72204 34168 ft 471 kts 254°
2026-05-08 20:21 55.66157 -38.83477 34168 ft 472 kts 254°
2026-05-08 20:22 55.64643 -38.94785 34168 ft 472 kts 254°
2026-05-08 20:22 55.63119 -39.06086 34168 ft 472 kts 254°
2026-05-08 20:23 55.61589 -39.17345 34169 ft 473 kts 254°
2026-05-08 20:23 55.60034 -39.28697 34169 ft 474 kts 254°
2026-05-08 20:24 55.58482 -39.39948 34169 ft 474 kts 254°
2026-05-08 20:24 55.56901 -39.51320 34169 ft 475 kts 254°
2026-05-08 20:25 55.55325 -39.62575 34169 ft 475 kts 254°
2026-05-08 20:25 55.53718 -39.73969 34167 ft 476 kts 253°
2026-05-08 20:26 55.52112 -39.85267 34166 ft 476 kts 253°
2026-05-08 20:26 55.50485 -39.96637 34164 ft 477 kts 253°
2026-05-08 20:27 55.48802 -40.07906 34163 ft 477 kts 252°
2026-05-08 20:27 55.47084 -40.19240 34160 ft 477 kts 252°
2026-05-08 20:28 55.45367 -40.30482 34155 ft 477 kts 252°
2026-05-08 20:28 55.43635 -40.41741 34155 ft 477 kts 252°
2026-05-08 20:29 55.41885 -40.53041 34155 ft 477 kts 252°
2026-05-08 20:29 55.40131 -40.64286 34154 ft 477 kts 252°
2026-05-08 20:30 55.38374 -40.75470 34151 ft 476 kts 252°
2026-05-08 20:30 55.36602 -40.86671 34151 ft 476 kts 252°
2026-05-08 20:31 55.34819 -40.97875 34151 ft 476 kts 252°
2026-05-08 20:31 55.33029 -41.09046 34151 ft 476 kts 252°
2026-05-08 20:32 55.31234 -41.20175 34152 ft 476 kts 252°
2026-05-08 20:32 55.29424 -41.31322 34152 ft 476 kts 252°
2026-05-08 20:33 55.27600 -41.42488 34153 ft 476 kts 252°
2026-05-08 20:33 55.25764 -41.53647 34152 ft 476 kts 252°
2026-05-08 20:34 55.23927 -41.64749 34152 ft 476 kts 252°
2026-05-08 20:35 55.21140 -41.81447 34150 ft 476 kts 251°
2026-05-08 20:35 55.19286 -41.92472 34150 ft 476 kts 251°
2026-05-08 20:36 55.17408 -42.03568 34148 ft 476 kts 251°
2026-05-08 20:36 55.15524 -42.14628 34147 ft 477 kts 251°
2026-05-08 20:37 55.13622 -42.25723 34144 ft 477 kts 251°
2026-05-08 20:37 55.11716 -42.36775 34143 ft 476 kts 252°
2026-05-08 20:38 55.09788 -42.47882 34145 ft 476 kts 252°
2026-05-08 20:38 55.07874 -42.58849 34145 ft 476 kts 252°
2026-05-08 20:39 55.05940 -42.69854 34144 ft 475 kts 251°
2026-05-08 20:39 55.03988 -42.80899 34143 ft 475 kts 251°
2026-05-08 20:40 55.02040 -42.91850 34126 ft 475 kts 251°
2026-05-08 20:40 55.00080 -43.02809 34073 ft 475 kts 251°
2026-05-08 20:41 54.98117 -43.13715 34033 ft 474 kts 251°
2026-05-08 20:41 54.96131 -43.24682 34030 ft 475 kts 251°
2026-05-08 20:42 54.94151 -43.35558 34033 ft 475 kts 251°
2026-05-08 20:42 54.92148 -43.46491 34033 ft 474 kts 251°
2026-05-08 20:43 54.90147 -43.57349 34032 ft 474 kts 251°
2026-05-08 20:43 54.88132 -43.68223 34034 ft 474 kts 251°
2026-05-08 20:44 54.86107 -43.79082 34032 ft 473 kts 251°
2026-05-08 20:44 54.84063 -43.89981 34031 ft 473 kts 251°
2026-05-08 20:45 54.82032 -44.00750 34030 ft 473 kts 251°
2026-05-08 20:45 54.79984 -44.11550 34029 ft 472 kts 251°
2026-05-08 20:46 54.77914 -44.22400 34036 ft 471 kts 251°
2026-05-08 20:46 54.75853 -44.33147 34035 ft 470 kts 251°
2026-05-08 20:47 54.73792 -44.43826 34029 ft 470 kts 251°
2026-05-08 20:47 54.71715 -44.54533 34027 ft 470 kts 251°
2026-05-08 20:48 54.69634 -44.65202 34029 ft 470 kts 250°
2026-05-08 20:48 54.67540 -44.75878 34029 ft 469 kts 250°
2026-05-08 20:49 54.65450 -44.86474 34029 ft 469 kts 250°
2026-05-08 20:49 54.63335 -44.97142 34029 ft 468 kts 250°
2026-05-08 20:50 54.61222 -45.07738 34028 ft 468 kts 250°
2026-05-08 20:50 54.59099 -45.18329 34027 ft 468 kts 250°
2026-05-08 20:51 54.56966 -45.28912 34025 ft 467 kts 250°
2026-05-08 20:51 54.54826 -45.39470 34024 ft 466 kts 251°
2026-05-08 20:52 54.52688 -45.49967 34022 ft 465 kts 251°
2026-05-08 20:52 54.50546 -45.60425 34021 ft 464 kts 251°
2026-05-08 20:53 54.48394 -45.70880 34021 ft 463 kts 250°
2026-05-08 20:53 54.46237 -45.81300 34020 ft 463 kts 250°
2026-05-08 20:54 54.44085 -45.91646 34019 ft 462 kts 250°
2026-05-08 20:54 54.41922 -46.01988 34018 ft 461 kts 250°
2026-05-08 20:55 54.39753 -46.12310 34020 ft 460 kts 250°
2026-05-08 20:55 54.37576 -46.22613 34019 ft 459 kts 250°
2026-05-08 20:56 54.35395 -46.32883 34015 ft 459 kts 250°
2026-05-08 20:56 54.33213 -46.43112 34014 ft 459 kts 250°
2026-05-08 20:57 54.31017 -46.53350 34016 ft 459 kts 250°
2026-05-08 20:57 54.28818 -46.63549 34015 ft 459 kts 250°
2026-05-08 20:58 54.26598 -46.73799 34018 ft 460 kts 249°
2026-05-08 20:58 54.24381 -46.83985 34017 ft 460 kts 249°
2026-05-08 20:59 54.22143 -46.94210 34017 ft 460 kts 249°
2026-05-08 20:59 54.19891 -47.04454 34016 ft 459 kts 249°
2026-05-08 21:00 54.17651 -47.14591 34015 ft 459 kts 249°
2026-05-08 21:00 54.15401 -47.24725 34014 ft 458 kts 249°
2026-05-08 21:01 54.13136 -47.34874 34013 ft 458 kts 249°
2026-05-08 21:01 54.10881 -47.44934 34012 ft 457 kts 249°
2026-05-08 21:02 54.08617 -47.54982 34010 ft 455 kts 249°
2026-05-08 21:02 54.06342 -47.65032 34009 ft 454 kts 248°
2026-05-08 21:03 54.04086 -47.74955 34010 ft 453 kts 248°
2026-05-08 21:03 54.01807 -47.84927 34009 ft 452 kts 248°
2026-05-08 21:04 53.99530 -47.94846 34008 ft 452 kts 248°
2026-05-08 21:04 53.97258 -48.04694 34013 ft 451 kts 248°
2026-05-08 21:05 53.94966 -48.14584 34014 ft 451 kts 248°
2026-05-08 21:05 53.92668 -48.24453 34013 ft 451 kts 248°
2026-05-08 21:06 53.90370 -48.34281 34012 ft 451 kts 248°
2026-05-08 21:06 53.88056 -48.44130 34015 ft 451 kts 248°
2026-05-08 21:07 53.85730 -48.53981 34014 ft 452 kts 248°
2026-05-08 21:07 53.83413 -48.63754 34013 ft 452 kts 248°
2026-05-08 21:08 53.81071 -48.73587 34015 ft 452 kts 247°
2026-05-08 21:08 53.78719 -48.83421 34014 ft 452 kts 246°
2026-05-08 21:09 53.76364 -48.93215 34015 ft 452 kts 246°
2026-05-08 21:09 53.73980 -49.03088 34014 ft 453 kts 246°
2026-05-08 21:10 53.71605 -49.12882 34013 ft 453 kts 246°
2026-05-08 21:10 53.69191 -49.22789 34013 ft 454 kts 246°
2026-05-08 21:11 53.66788 -49.32603 34013 ft 454 kts 245°
2026-05-08 21:11 53.64372 -49.42433 34012 ft 455 kts 245°
2026-05-08 21:12 53.61954 -49.52224 34011 ft 455 kts 245°
2026-05-08 21:12 53.59516 -49.62054 34011 ft 455 kts 245°
2026-05-08 21:13 53.57084 -49.71813 34011 ft 455 kts 244°
2026-05-08 21:13 53.54623 -49.81645 34010 ft 455 kts 244°
2026-05-08 21:14 53.52163 -49.91430 34009 ft 455 kts 244°
2026-05-08 21:14 53.49714 -50.01234 34010 ft 455 kts 245°
2026-05-08 21:15 53.47322 -50.11100 34005 ft 456 kts 245°
2026-05-08 21:15 53.44922 -50.20973 34005 ft 456 kts 245°
2026-05-08 21:16 53.42511 -50.30847 34005 ft 456 kts 245°
2026-05-08 21:16 53.40102 -50.40670 34005 ft 456 kts 245°
2026-05-08 21:17 53.37690 -50.50470 34002 ft 456 kts 245°
2026-05-08 21:17 53.35254 -50.60319 34001 ft 456 kts 245°
2026-05-08 21:18 53.32826 -50.70089 34001 ft 455 kts 244°
2026-05-08 21:18 53.30386 -50.79868 34001 ft 455 kts 244°
2026-05-08 21:19 53.27953 -50.89578 34000 ft 455 kts 244°
2026-05-08 21:19 53.25493 -50.99353 33998 ft 455 kts 244°
2026-05-08 21:20 53.23038 -51.09066 33998 ft 455 kts 244°
2026-05-08 21:20 53.20579 -51.18748 33998 ft 456 kts 244°
2026-05-08 21:21 53.18093 -51.28490 33999 ft 456 kts 244°
2026-05-08 21:21 53.15595 -51.38244 34001 ft 456 kts 244°
2026-05-08 21:22 53.13115 -51.47881 34003 ft 456 kts 244°
2026-05-08 21:22 53.10616 -51.57554 34002 ft 455 kts 244°
2026-05-08 21:23 53.08103 -51.67239 34001 ft 455 kts 243°
2026-05-08 21:23 53.05587 -51.76894 34001 ft 455 kts 243°
2026-05-08 21:24 53.03059 -51.86552 34000 ft 455 kts 243°
2026-05-08 21:24 53.00529 -51.96177 33999 ft 455 kts 243°
2026-05-08 21:25 52.98002 -52.05750 33998 ft 454 kts 243°
2026-05-08 21:25 52.95459 -52.15344 33997 ft 454 kts 243°
2026-05-08 21:26 52.92925 -52.24866 33977 ft 453 kts 243°
2026-05-08 21:26 52.90385 -52.34369 33975 ft 451 kts 243°
2026-05-08 21:27 52.87831 -52.43885 34006 ft 451 kts 244°
2026-05-08 21:27 52.85295 -52.53297 34006 ft 450 kts 244°
2026-05-08 21:28 52.82745 -52.62720 34003 ft 449 kts 244°
2026-05-08 21:28 52.80191 -52.72116 34004 ft 448 kts 243°
2026-05-08 21:29 52.77633 -52.81491 34002 ft 448 kts 243°
2026-05-08 21:29 52.75069 -52.90853 34000 ft 447 kts 243°
2026-05-08 21:30 52.72512 -53.00150 33999 ft 447 kts 243°
2026-05-08 21:30 52.69933 -53.09488 33998 ft 446 kts 243°
2026-05-08 21:31 52.67375 -53.18715 33997 ft 445 kts 243°
2026-05-08 21:31 52.64792 -53.27992 33996 ft 444 kts 243°
2026-05-08 21:32 52.62230 -53.37163 33995 ft 444 kts 243°
2026-05-08 21:32 52.59638 -53.46397 33994 ft 444 kts 243°
2026-05-08 21:33 52.57051 -53.55580 33993 ft 442 kts 243°
2026-05-08 21:33 52.54464 -53.64729 33992 ft 441 kts 244°
2026-05-08 21:34 52.51883 -53.73824 33997 ft 439 kts 243°
2026-05-08 21:34 52.49292 -53.82919 33996 ft 438 kts 243°
2026-05-08 21:35 52.46713 -53.91929 33997 ft 437 kts 243°
2026-05-08 21:35 52.44123 -54.00947 33996 ft 436 kts 243°
2026-05-08 21:36 52.41539 -54.09910 33992 ft 436 kts 243°
2026-05-08 21:36 52.38956 -54.18836 33991 ft 435 kts 243°
2026-05-08 21:37 52.36367 -54.27749 34000 ft 434 kts 243°
2026-05-08 21:37 52.33775 -54.36639 33999 ft 433 kts 244°
2026-05-08 21:38 52.31189 -54.45475 33998 ft 434 kts 243°
2026-05-08 21:38 52.28571 -54.54387 33997 ft 435 kts 243°
2026-05-08 21:39 52.25952 -54.63269 33998 ft 434 kts 243°
2026-05-08 21:39 52.23331 -54.72125 34004 ft 434 kts 243°
2026-05-08 21:40 52.20704 -54.80969 34005 ft 434 kts 243°
2026-05-08 21:40 52.18074 -54.89792 34004 ft 433 kts 243°
2026-05-08 21:41 52.14127 -55.02968 34002 ft 433 kts 243°
2026-05-08 21:41 52.11468 -55.11806 34001 ft 433 kts 242°
2026-05-08 21:42 52.08430 -55.20168 34002 ft 431 kts 236°
2026-05-08 21:42 52.05101 -55.28203 34000 ft 430 kts 235°
2026-05-08 21:43 52.01747 -55.36218 33999 ft 429 kts 235°
2026-05-08 21:43 51.98412 -55.44134 33998 ft 428 kts 235°
2026-05-08 21:44 51.95065 -55.52023 33997 ft 426 kts 235°
2026-05-08 21:44 51.91708 -55.59911 33999 ft 425 kts 235°
2026-05-08 21:45 51.88344 -55.67798 34012 ft 423 kts 235°
2026-05-08 21:45 51.85009 -55.75595 34010 ft 421 kts 235°
2026-05-08 21:46 51.81691 -55.83329 34008 ft 422 kts 235°
2026-05-08 21:46 51.78346 -55.91092 34007 ft 422 kts 235°
2026-05-08 21:47 51.75016 -55.98809 34007 ft 422 kts 235°
2026-05-08 21:47 51.71658 -56.06526 34010 ft 422 kts 235°
2026-05-08 21:48 51.68288 -56.14299 34009 ft 422 kts 235°
2026-05-08 21:48 51.64909 -56.22026 34010 ft 422 kts 235°
2026-05-08 21:49 51.61554 -56.29710 34012 ft 421 kts 235°
2026-05-08 21:49 51.58217 -56.37336 34012 ft 421 kts 235°
2026-05-08 21:50 51.54845 -56.45001 34010 ft 421 kts 235°
2026-05-08 21:50 51.51478 -56.52614 34014 ft 420 kts 235°
2026-05-08 21:51 51.48101 -56.60241 34014 ft 420 kts 235°
2026-05-08 21:51 51.44724 -56.67852 34020 ft 419 kts 234°
2026-05-08 21:52 51.41342 -56.75450 34024 ft 419 kts 234°
2026-05-08 21:52 51.37953 -56.83040 34023 ft 419 kts 234°
2026-05-08 21:53 51.34564 -56.90610 34022 ft 418 kts 234°
2026-05-08 21:53 51.31175 -56.98157 34022 ft 418 kts 234°
2026-05-08 21:54 51.27798 -57.05654 34024 ft 417 kts 234°
2026-05-08 21:54 51.24401 -57.13176 34026 ft 417 kts 234°
2026-05-08 21:55 51.21030 -57.20617 34026 ft 417 kts 234°
2026-05-08 21:56 51.15934 -57.31826 34023 ft 416 kts 234°
2026-05-08 21:56 51.12529 -57.39289 34021 ft 416 kts 234°
2026-05-08 21:57 51.09132 -57.46713 34019 ft 416 kts 234°
2026-05-08 21:57 51.05740 -57.54105 34018 ft 416 kts 234°
2026-05-08 21:58 51.02336 -57.61500 34017 ft 416 kts 234°
2026-05-08 21:58 50.98916 -57.68911 34023 ft 416 kts 233°
2026-05-08 21:59 50.95506 -57.76279 34023 ft 415 kts 233°
2026-05-08 21:59 50.92096 -57.83626 34021 ft 415 kts 233°
2026-05-08 22:00 50.88670 -57.90987 34028 ft 414 kts 233°
2026-05-08 22:00 50.85282 -57.98247 34028 ft 414 kts 233°
2026-05-08 22:01 50.81869 -58.05538 34028 ft 413 kts 234°
2026-05-08 22:01 50.78456 -58.12797 34026 ft 413 kts 234°
2026-05-08 22:02 50.75037 -58.20057 34027 ft 412 kts 234°
2026-05-08 22:02 50.71627 -58.27285 34024 ft 411 kts 234°
2026-05-08 22:03 50.68245 -58.34446 34022 ft 410 kts 234°
2026-05-08 22:03 50.64835 -58.41648 34019 ft 410 kts 234°
2026-05-08 22:04 50.61425 -58.48810 34016 ft 409 kts 234°
2026-05-08 22:04 50.58037 -58.55907 34018 ft 408 kts 234°
2026-05-08 22:05 50.54628 -58.63031 34013 ft 408 kts 234°
2026-05-08 22:05 50.51204 -58.70144 34021 ft 407 kts 233°
2026-05-08 22:06 50.47809 -58.77218 34022 ft 407 kts 233°
2026-05-08 22:06 50.44417 -58.84251 34018 ft 406 kts 233°
2026-05-08 22:07 50.40995 -58.91318 34018 ft 406 kts 233°
2026-05-08 22:07 50.37588 -58.98366 34017 ft 406 kts 233°
2026-05-08 22:08 50.34173 -59.05375 34015 ft 405 kts 233°
2026-05-08 22:08 50.30776 -59.12353 34014 ft 404 kts 233°
2026-05-08 22:09 50.27365 -59.19326 34015 ft 403 kts 233°
2026-05-08 22:09 50.23959 -59.26270 34013 ft 402 kts 233°
2026-05-08 22:10 50.20589 -59.33126 34012 ft 400 kts 233°
2026-05-08 22:10 50.17200 -59.40005 34009 ft 400 kts 233°
2026-05-08 22:11 50.13800 -59.46883 34006 ft 398 kts 233°
2026-05-08 22:11 50.10431 -59.53685 34001 ft 397 kts 233°
2026-05-08 22:12 50.07078 -59.60437 33998 ft 396 kts 233°
2026-05-08 22:12 50.03716 -59.67188 34005 ft 394 kts 233°
2026-05-08 22:13 50.00357 -59.73916 34006 ft 394 kts 233°
2026-05-08 22:13 49.97022 -59.80582 34004 ft 393 kts 233°
2026-05-08 22:14 49.93673 -59.87258 34002 ft 392 kts 233°
2026-05-08 22:14 49.90334 -59.93897 33999 ft 391 kts 233°
2026-05-08 22:15 49.86979 -60.00550 34008 ft 392 kts 233°
2026-05-08 22:15 49.83635 -60.07166 34007 ft 391 kts 233°
2026-05-08 22:16 49.80282 -60.13782 34005 ft 391 kts 233°
2026-05-08 22:16 49.76923 -60.20394 34003 ft 391 kts 233°
2026-05-08 22:17 49.73579 -60.26959 34000 ft 391 kts 233°
2026-05-08 22:17 49.70214 -60.33551 33998 ft 391 kts 233°
2026-05-08 22:18 49.66862 -60.40099 33996 ft 391 kts 233°
2026-05-08 22:18 49.63489 -60.46671 33995 ft 391 kts 233°
2026-05-08 22:19 49.60119 -60.53224 33991 ft 391 kts 233°
2026-05-08 22:19 49.56746 -60.59764 33988 ft 391 kts 233°
2026-05-08 22:20 49.53366 -60.66301 33991 ft 391 kts 232°
2026-05-08 22:20 49.49990 -60.72817 33997 ft 391 kts 232°
2026-05-08 22:21 49.46610 -60.79324 33996 ft 391 kts 232°
2026-05-08 22:21 49.43226 -60.85821 33994 ft 391 kts 232°
2026-05-08 22:22 49.39835 -60.92316 33990 ft 391 kts 231°
2026-05-08 22:22 49.36443 -60.98796 33984 ft 391 kts 231°
2026-05-08 22:23 49.33040 -61.05283 33981 ft 391 kts 231°
2026-05-08 22:23 49.29652 -61.11724 33980 ft 391 kts 231°
2026-05-08 22:24 49.26249 -61.18180 33978 ft 391 kts 231°
2026-05-08 22:24 49.22848 -61.24615 33976 ft 391 kts 231°
2026-05-08 22:25 49.19420 -61.31087 33975 ft 390 kts 231°
2026-05-08 22:25 49.16032 -61.37466 33974 ft 390 kts 231°
2026-05-08 22:26 49.12608 -61.43898 33972 ft 390 kts 231°
2026-05-08 22:26 49.09190 -61.50303 33969 ft 390 kts 231°
2026-05-08 22:27 49.05754 -61.56726 33966 ft 389 kts 231°
2026-05-08 22:27 49.02350 -61.63075 33963 ft 389 kts 231°
2026-05-08 22:28 48.98901 -61.69490 33971 ft 389 kts 230°
2026-05-08 22:28 48.95505 -61.75795 33969 ft 388 kts 230°
2026-05-08 22:29 48.92090 -61.82118 33966 ft 388 kts 230°
2026-05-08 22:29 48.88654 -61.88462 33976 ft 388 kts 230°
2026-05-08 22:30 48.85236 -61.94763 33972 ft 387 kts 230°
2026-05-08 22:30 48.81807 -62.01067 33965 ft 386 kts 230°
2026-05-08 22:31 48.78406 -62.07304 33961 ft 386 kts 230°
2026-05-08 22:31 48.74991 -62.13555 33955 ft 385 kts 230°
2026-05-08 22:32 48.71569 -62.19801 33947 ft 385 kts 230°
2026-05-08 22:32 48.68154 -62.26020 33947 ft 385 kts 229°
2026-05-08 22:33 48.64744 -62.32216 33948 ft 384 kts 229°
2026-05-08 22:33 48.61338 -62.38390 33944 ft 384 kts 229°
2026-05-08 22:34 48.57935 -62.44546 33939 ft 383 kts 229°
2026-05-08 22:34 48.54525 -62.50698 33936 ft 383 kts 229°
2026-05-08 22:35 48.51102 -62.56860 33925 ft 383 kts 229°
2026-05-08 22:35 48.47684 -62.62998 33914 ft 383 kts 229°
2026-05-08 22:36 48.44259 -62.69137 33920 ft 383 kts 229°
2026-05-08 22:36 48.40828 -62.75271 33918 ft 383 kts 229°
2026-05-08 22:37 48.37408 -62.81370 33916 ft 384 kts 229°
2026-05-08 22:37 48.33984 -62.87464 33913 ft 384 kts 229°
2026-05-08 22:38 48.30535 -62.93590 33910 ft 384 kts 229°
2026-05-08 22:38 48.27089 -62.99692 33907 ft 384 kts 229°
2026-05-08 22:39 48.23639 -63.05791 33906 ft 384 kts 229°
2026-05-08 22:39 48.20169 -63.11911 33904 ft 385 kts 228°
2026-05-08 22:40 48.16723 -63.17973 33902 ft 385 kts 228°
2026-05-08 22:40 48.13246 -63.24077 33900 ft 385 kts 228°
2026-05-08 22:41 48.09801 -63.30110 33897 ft 384 kts 228°
2026-05-08 22:41 48.06331 -63.36174 33894 ft 384 kts 228°
2026-05-08 22:42 48.02859 -63.42228 33891 ft 384 kts 228°
2026-05-08 22:42 47.99392 -63.48260 33889 ft 384 kts 228°
2026-05-08 22:43 47.95936 -63.54258 33880 ft 383 kts 228°
2026-05-08 22:43 47.92465 -63.60269 33869 ft 382 kts 228°
2026-05-08 22:44 47.89008 -63.66243 33883 ft 381 kts 227°
2026-05-08 22:44 47.85554 -63.72198 33894 ft 380 kts 227°
2026-05-08 22:45 47.82092 -63.78153 33891 ft 381 kts 227°
2026-05-08 22:45 47.78621 -63.84110 33885 ft 381 kts 227°
2026-05-08 22:46 47.75141 -63.90070 33881 ft 381 kts 227°
2026-05-08 22:46 47.71684 -63.95977 33878 ft 381 kts 227°
2026-05-08 22:47 47.68215 -64.01891 33874 ft 381 kts 227°
2026-05-08 22:47 47.64717 -64.07844 33871 ft 381 kts 227°
2026-05-08 22:48 47.61239 -64.13748 33867 ft 382 kts 227°
2026-05-08 22:48 47.57751 -64.19655 33863 ft 382 kts 227°
2026-05-08 22:49 47.54258 -64.25559 33860 ft 382 kts 227°
2026-05-08 22:49 47.48989 -64.34440 33854 ft 383 kts 227°
2026-05-08 22:50 47.45495 -64.40312 33850 ft 383 kts 227°
2026-05-08 22:50 47.41974 -64.46218 33846 ft 383 kts 227°
2026-05-08 22:51 47.38461 -64.52096 33842 ft 383 kts 227°
2026-05-08 22:51 47.34936 -64.57981 33837 ft 384 kts 226°
2026-05-08 22:52 47.31412 -64.63854 33829 ft 385 kts 226°
2026-05-08 22:52 47.27860 -64.69759 33829 ft 385 kts 226°
2026-05-08 22:53 47.24308 -64.75650 33816 ft 385 kts 225°
2026-05-08 22:53 47.20766 -64.81512 33806 ft 385 kts 225°
2026-05-08 22:54 47.17195 -64.87411 33801 ft 385 kts 225°
2026-05-08 22:54 47.13615 -64.93311 33797 ft 386 kts 225°
2026-05-08 22:55 47.10023 -64.99218 33792 ft 386 kts 225°
2026-05-08 22:55 47.06467 -65.05052 33788 ft 386 kts 225°
2026-05-08 22:56 47.02872 -65.10938 33784 ft 386 kts 225°
2026-05-08 22:56 46.99261 -65.16838 33780 ft 386 kts 225°
2026-05-08 22:57 46.95679 -65.22676 33776 ft 387 kts 225°
2026-05-08 22:57 46.92095 -65.28506 33773 ft 387 kts 225°
2026-05-08 22:58 46.88502 -65.34337 33789 ft 387 kts 225°
2026-05-08 22:58 46.84878 -65.40206 33791 ft 388 kts 225°
2026-05-08 22:59 46.81285 -65.46011 33788 ft 388 kts 225°
2026-05-08 22:59 46.77668 -65.51846 33783 ft 388 kts 225°
2026-05-08 23:00 46.74043 -65.57677 33780 ft 388 kts 225°
2026-05-08 23:00 46.70395 -65.63535 33777 ft 389 kts 225°
2026-05-08 23:01 46.66754 -65.69368 33782 ft 388 kts 224°
2026-05-08 23:01 46.63135 -65.75153 33780 ft 389 kts 224°
2026-05-08 23:02 46.59494 -65.80962 33777 ft 390 kts 224°
2026-05-08 23:02 46.55830 -65.86794 33773 ft 390 kts 224°
2026-05-08 23:03 46.52177 -65.92596 33769 ft 390 kts 223°
2026-05-08 23:03 46.48524 -65.98387 33766 ft 390 kts 223°
2026-05-08 23:04 46.44860 -66.04180 33765 ft 390 kts 223°
2026-05-08 23:04 46.41198 -66.09958 33763 ft 391 kts 223°
2026-05-08 23:05 46.37506 -66.15771 33761 ft 392 kts 223°
2026-05-08 23:05 46.33817 -66.21570 33760 ft 393 kts 223°
2026-05-08 23:06 46.30105 -66.27391 33757 ft 393 kts 223°
2026-05-08 23:06 46.26413 -66.33170 33753 ft 393 kts 223°
2026-05-08 23:07 46.22695 -66.38973 33750 ft 393 kts 223°
2026-05-08 23:07 46.18993 -66.44741 33747 ft 393 kts 223°
2026-05-08 23:08 46.15297 -66.50488 33745 ft 393 kts 223°
2026-05-08 23:08 46.11589 -66.56239 33742 ft 393 kts 223°
2026-05-08 23:09 46.07861 -66.62011 33740 ft 393 kts 223°
2026-05-08 23:09 46.04130 -66.67774 33742 ft 393 kts 223°
2026-05-08 23:10 46.00458 -66.73434 33739 ft 394 kts 223°
2026-05-08 23:10 45.96710 -66.79200 33727 ft 395 kts 223°
2026-05-08 23:11 45.92980 -66.84925 33726 ft 396 kts 223°
2026-05-08 23:11 45.89217 -66.90691 33744 ft 396 kts 223°
2026-05-08 23:12 45.85426 -66.96485 33754 ft 397 kts 223°
2026-05-08 23:12 45.81641 -67.02259 33753 ft 398 kts 223°
2026-05-08 23:13 45.77853 -67.08024 33750 ft 398 kts 223°
2026-05-08 23:13 45.74312 -67.13403 33748 ft 399 kts 223°
2026-05-08 23:14 45.70522 -67.19147 33749 ft 399 kts 223°
2026-05-08 23:14 45.66711 -67.24912 33751 ft 400 kts 223°
2026-05-08 23:15 45.62872 -67.30705 33752 ft 401 kts 223°
2026-05-08 23:15 45.59051 -67.36461 33752 ft 402 kts 223°
2026-05-08 23:16 45.55204 -67.42243 33751 ft 403 kts 223°
2026-05-08 23:16 45.51337 -67.48042 33752 ft 403 kts 223°
2026-05-08 23:17 45.47479 -67.53816 33754 ft 403 kts 223°
2026-05-08 23:17 45.43618 -67.59583 33753 ft 403 kts 223°
2026-05-08 23:18 45.39743 -67.65358 33752 ft 404 kts 222°
2026-05-08 23:18 45.35881 -67.71100 33753 ft 404 kts 222°
2026-05-08 23:19 45.32067 -67.76985 33749 ft 405 kts 223°
2026-05-08 23:19 45.28294 -67.82923 33746 ft 405 kts 223°
2026-05-08 23:20 45.24500 -67.88891 33743 ft 406 kts 224°
2026-05-08 23:20 45.20700 -67.94861 33742 ft 406 kts 223°
2026-05-08 23:21 45.16921 -68.00785 33746 ft 405 kts 223°
2026-05-08 23:21 45.13119 -68.06733 33736 ft 407 kts 224°
2026-05-08 23:22 45.09308 -68.12683 33737 ft 410 kts 224°
2026-05-08 23:22 45.05470 -68.18665 33751 ft 411 kts 224°
2026-05-08 23:23 45.01608 -68.24695 33751 ft 412 kts 224°
2026-05-08 23:23 44.97777 -68.30645 33755 ft 412 kts 224°
2026-05-08 23:24 44.93927 -68.36625 33759 ft 413 kts 224°
2026-05-08 23:24 44.90051 -68.42609 33761 ft 413 kts 224°
2026-05-08 23:25 44.86182 -68.48590 33782 ft 413 kts 224°
2026-05-08 23:25 44.82289 -68.54562 33786 ft 413 kts 224°
2026-05-08 23:26 44.78421 -68.60504 33783 ft 414 kts 224°
2026-05-08 23:26 44.74522 -68.66495 33782 ft 414 kts 224°
2026-05-08 23:27 44.70683 -68.72361 33789 ft 415 kts 223°
2026-05-08 23:27 44.68715 -68.75329 33774 ft 403 kts 221°
2026-05-08 23:27 44.66679 -68.77909 33554 ft 391 kts 218°
2026-05-08 23:28 44.64604 -68.80414 32975 ft 392 kts 217°
2026-05-08 23:28 44.62532 -68.82909 32282 ft 396 kts 217°
2026-05-08 23:28 44.60445 -68.85404 31886 ft 393 kts 217°
2026-05-08 23:28 44.58378 -68.87878 31789 ft 401 kts 217°
2026-05-08 23:29 44.54083 -68.93012 31767 ft 405 kts 216°
2026-05-08 23:29 44.49793 -68.98132 31786 ft 406 kts 216°
2026-05-08 23:30 44.45526 -69.03213 31787 ft 406 kts 216°
2026-05-08 23:30 44.41202 -69.08353 31788 ft 407 kts 216°
2026-05-08 23:31 44.36902 -69.13452 31785 ft 407 kts 216°
2026-05-08 23:31 44.32551 -69.18604 31784 ft 408 kts 216°
2026-05-08 23:32 44.28240 -69.23695 31784 ft 408 kts 216°
2026-05-08 23:32 44.23891 -69.28822 31786 ft 409 kts 216°
2026-05-08 23:33 44.19541 -69.33942 31788 ft 410 kts 216°
2026-05-08 23:33 44.15236 -69.38999 31789 ft 410 kts 216°
2026-05-08 23:34 44.10854 -69.44134 31791 ft 411 kts 216°
2026-05-08 23:34 44.06476 -69.49255 31792 ft 411 kts 216°
2026-05-08 23:35 44.02116 -69.54343 31793 ft 412 kts 216°
2026-05-08 23:35 43.97724 -69.59461 31794 ft 412 kts 216°
2026-05-08 23:36 43.93357 -69.64539 31795 ft 412 kts 216°
2026-05-08 23:36 43.88970 -69.69630 31799 ft 413 kts 216°
2026-05-08 23:37 43.84504 -69.74802 31807 ft 414 kts 216°
2026-05-08 23:37 43.80464 -69.79471 31815 ft 414 kts 216°
2026-05-08 23:38 43.76032 -69.84584 31815 ft 414 kts 216°
2026-05-08 23:38 43.71618 -69.89666 31814 ft 414 kts 216°
2026-05-08 23:39 43.67216 -69.94724 31813 ft 414 kts 216°
2026-05-08 23:39 43.62804 -69.99783 31811 ft 414 kts 216°
2026-05-08 23:40 43.58383 -70.04844 31810 ft 414 kts 216°
2026-05-08 23:40 43.53930 -70.09930 31806 ft 414 kts 216°
2026-05-08 23:41 43.49498 -70.14982 31806 ft 415 kts 216°
2026-05-08 23:41 43.45061 -70.20029 31804 ft 416 kts 217°
2026-05-08 23:42 43.40608 -70.25086 31805 ft 416 kts 217°
2026-05-08 23:42 43.36137 -70.30153 31806 ft 417 kts 217°
2026-05-08 23:43 43.31675 -70.35199 31808 ft 417 kts 217°
2026-05-08 23:43 43.27174 -70.40279 31810 ft 418 kts 217°
2026-05-08 23:44 43.22684 -70.45335 31813 ft 418 kts 217°
2026-05-08 23:44 43.18206 -70.50368 31816 ft 418 kts 218°
2026-05-08 23:45 43.13689 -70.55436 31818 ft 419 kts 218°
2026-05-08 23:45 43.09206 -70.60456 31819 ft 419 kts 218°
2026-05-08 23:46 43.04662 -70.65533 31818 ft 420 kts 218°
2026-05-08 23:46 43.00176 -70.70537 31814 ft 420 kts 218°
2026-05-08 23:47 42.95676 -70.75546 31818 ft 421 kts 218°
2026-05-08 23:47 42.91130 -70.80597 31821 ft 421 kts 218°
2026-05-08 23:48 42.86570 -70.85651 31832 ft 421 kts 218°
2026-05-08 23:48 42.82138 -70.90187 31829 ft 421 kts 210°
2026-05-08 23:49 42.76869 -70.93337 31834 ft 422 kts 201°
2026-05-08 23:49 42.71352 -70.96047 31838 ft 423 kts 201°
2026-05-08 23:50 42.65788 -70.98750 31845 ft 424 kts 201°
2026-05-08 23:50 42.60222 -71.01437 31849 ft 424 kts 201°
2026-05-08 23:51 42.54676 -71.04102 31847 ft 424 kts 201°
2026-05-08 23:51 42.49102 -71.06773 31846 ft 425 kts 201°
2026-05-08 23:52 42.43540 -71.09431 31846 ft 426 kts 201°
2026-05-08 23:52 42.37938 -71.12103 31847 ft 426 kts 201°
2026-05-08 23:53 42.32376 -71.14750 31848 ft 426 kts 201°
2026-05-08 23:53 42.26759 -71.17419 31850 ft 426 kts 201°
2026-05-08 23:54 42.21163 -71.20072 31853 ft 427 kts 201°
2026-05-08 23:55 42.12738 -71.24056 31856 ft 428 kts 201°
2026-05-08 23:55 42.07154 -71.26691 31856 ft 428 kts 201°
2026-05-08 23:56 42.01511 -71.29349 31856 ft 429 kts 201°
2026-05-08 23:56 41.95912 -71.31982 31851 ft 429 kts 202°
2026-05-08 23:57 41.90275 -71.34626 31847 ft 429 kts 202°
2026-05-08 23:57 41.84628 -71.37271 31849 ft 429 kts 202°
2026-05-08 23:58 41.79017 -71.39894 31870 ft 429 kts 202°
2026-05-08 23:58 41.73459 -71.42738 31875 ft 426 kts 210°
2026-05-08 23:59 41.68644 -71.47199 31879 ft 423 kts 221°
2026-05-08 23:59 41.64107 -71.52268 31876 ft 422 kts 221°
2026-05-08 23:59 41.61869 -71.54766 31560 ft 417 kts 221°
2026-05-09 00:00 41.59662 -71.57227 30835 ft 421 kts 221°
2026-05-09 00:00 41.57417 -71.59729 30264 ft 419 kts 221°
2026-05-09 00:00 41.55189 -71.62208 29835 ft 414 kts 222°
2026-05-09 00:00 41.52979 -71.64665 29399 ft 410 kts 222°
2026-05-09 00:01 41.50818 -71.67064 29002 ft 408 kts 221°
2026-05-09 00:01 41.48626 -71.69496 28553 ft 406 kts 221°
2026-05-09 00:01 41.46548 -71.71800 28061 ft 406 kts 221°
2026-05-09 00:01 41.44388 -71.74191 27523 ft 404 kts 221°
2026-05-09 00:02 41.42217 -71.76595 27015 ft 401 kts 221°
2026-05-09 00:02 41.40096 -71.78939 26534 ft 398 kts 221°
2026-05-09 00:02 41.37955 -71.81303 26042 ft 395 kts 222°
2026-05-09 00:02 41.35845 -71.83631 25556 ft 391 kts 222°
2026-05-09 00:03 41.33765 -71.85925 25073 ft 387 kts 222°
2026-05-09 00:03 41.31717 -71.88180 24594 ft 384 kts 222°
2026-05-09 00:03 41.29671 -71.90432 24120 ft 380 kts 222°
2026-05-09 00:03 41.27646 -71.92659 23885 ft 374 kts 222°
2026-05-09 00:04 41.25606 -71.94902 23858 ft 381 kts 222°
2026-05-09 00:04 41.23569 -71.97140 23852 ft 382 kts 222°
2026-05-09 00:04 41.21508 -71.99402 23871 ft 384 kts 222°
2026-05-09 00:04 41.19441 -72.01667 23882 ft 384 kts 222°
2026-05-09 00:05 41.17372 -72.03933 23884 ft 384 kts 222°
2026-05-09 00:05 41.15291 -72.06210 23886 ft 385 kts 222°
2026-05-09 00:05 41.13247 -72.08446 23901 ft 385 kts 223°
2026-05-09 00:05 41.11327 -72.10952 23909 ft 383 kts 233°
2026-05-09 00:06 41.09827 -72.13827 23912 ft 381 kts 243°
2026-05-09 00:06 41.08748 -72.17033 23915 ft 379 kts 252°
2026-05-09 00:06 41.07918 -72.20279 23895 ft 366 kts 253°
2026-05-09 00:06 41.07148 -72.23349 23888 ft 339 kts 253°
2026-05-09 00:07 41.06432 -72.26210 23901 ft 321 kts 253°
2026-05-09 00:07 41.05726 -72.29043 23912 ft 323 kts 253°
2026-05-09 00:07 41.05020 -72.31880 23914 ft 323 kts 253°
2026-05-09 00:07 41.04319 -72.34697 23882 ft 317 kts 253°
2026-05-09 00:08 41.03637 -72.37432 23439 ft 312 kts 253°
2026-05-09 00:08 41.02955 -72.40166 22732 ft 314 kts 253°
2026-05-09 00:08 41.02278 -72.42880 22078 ft 312 kts 253°
2026-05-09 00:08 41.01610 -72.45553 21453 ft 308 kts 253°
2026-05-09 00:09 41.00939 -72.48235 20743 ft 307 kts 253°
2026-05-09 00:09 41.00261 -72.50942 20003 ft 307 kts 253°
2026-05-09 00:09 40.99598 -72.53584 19253 ft 306 kts 254°
2026-05-09 00:09 40.98927 -72.56256 18480 ft 305 kts 254°
2026-05-09 00:10 40.98267 -72.58883 17718 ft 304 kts 254°
2026-05-09 00:10 40.97604 -72.61517 16951 ft 303 kts 254°
2026-05-09 00:10 40.96944 -72.64137 16179 ft 302 kts 254°
2026-05-09 00:10 40.96275 -72.66789 15403 ft 301 kts 254°
2026-05-09 00:11 40.95620 -72.69379 14645 ft 296 kts 254°
2026-05-09 00:11 40.94980 -72.71923 13896 ft 294 kts 254°
2026-05-09 00:11 40.94371 -72.74328 13184 ft 293 kts 254°
2026-05-09 00:11 40.93783 -72.76655 12492 ft 290 kts 254°
2026-05-09 00:12 40.93068 -72.78968 11934 ft 287 kts 241°
2026-05-09 00:12 40.91737 -72.80914 11479 ft 283 kts 225°
2026-05-09 00:12 40.90218 -72.82498 11054 ft 280 kts 222°
2026-05-09 00:12 40.88704 -72.83974 10640 ft 280 kts 221°
2026-05-09 00:13 40.87223 -72.85396 10232 ft 279 kts 221°
2026-05-09 00:13 40.85645 -72.86915 9796 ft 278 kts 221°
2026-05-09 00:13 40.84095 -72.88399 9367 ft 276 kts 221°
2026-05-09 00:13 40.82552 -72.89878 8997 ft 275 kts 221°
2026-05-09 00:14 40.80989 -72.91373 8942 ft 277 kts 221°
2026-05-09 00:14 40.79420 -72.92881 8938 ft 279 kts 221°
2026-05-09 00:14 40.77854 -72.94371 8940 ft 280 kts 221°
2026-05-09 00:14 40.76272 -72.95885 8940 ft 281 kts 221°
2026-05-09 00:15 40.74681 -72.97408 8827 ft 282 kts 221°
2026-05-09 00:15 40.73099 -72.98920 8512 ft 280 kts 221°
2026-05-09 00:15 40.71541 -73.00403 8187 ft 277 kts 221°
2026-05-09 00:15 40.69977 -73.01875 7857 ft 275 kts 226°
2026-05-09 00:16 40.68828 -73.03810 7501 ft 262 kts 251°
2026-05-09 00:16 40.68381 -73.06070 7171 ft 255 kts 266°
2026-05-09 00:16 40.68173 -73.08386 6850 ft 252 kts 268°
2026-05-09 00:16 40.68025 -73.10677 6514 ft 251 kts 269°
2026-05-09 00:17 40.67743 -73.12923 6165 ft 255 kts 252°
2026-05-09 00:17 40.66806 -73.14947 5827 ft 260 kts 238°
2026-05-09 00:17 40.65702 -73.16847 5492 ft 260 kts 237°
2026-05-09 00:17 40.64590 -73.18718 5160 ft 258 kts 237°
2026-05-09 00:18 40.63493 -73.20561 4967 ft 256 kts 237°
2026-05-09 00:18 40.62386 -73.22422 4838 ft 258 kts 237°
2026-05-09 00:18 40.61263 -73.24307 4587 ft 257 kts 237°
2026-05-09 00:18 40.60157 -73.26172 4330 ft 256 kts 237°
2026-05-09 00:19 40.59067 -73.28006 4077 ft 255 kts 237°
2026-05-09 00:19 40.57975 -73.29839 3962 ft 254 kts 237°
2026-05-09 00:19 40.56883 -73.31689 3971 ft 257 kts 237°
2026-05-09 00:19 40.55791 -73.33536 3958 ft 255 kts 237°
2026-05-09 00:20 40.54700 -73.35373 3957 ft 255 kts 237°
2026-05-09 00:20 40.53664 -73.37258 3944 ft 251 kts 249°
2026-05-09 00:20 40.53216 -73.39438 3902 ft 247 kts 266°
2026-05-09 00:20 40.52997 -73.41698 3639 ft 246 kts 267°
2026-05-09 00:21 40.52801 -73.43903 3362 ft 244 kts 267°
2026-05-09 00:21 40.52610 -73.46117 3069 ft 243 kts 267°
2026-05-09 00:21 40.52431 -73.48283 2972 ft 235 kts 267°
2026-05-09 00:21 40.52245 -73.50424 2973 ft 235 kts 268°
2026-05-09 00:22 40.52404 -73.52509 2967 ft 230 kts 294°
2026-05-09 00:22 40.53218 -73.54282 2974 ft 225 kts 311°
2026-05-09 00:22 40.54341 -73.55738 2975 ft 221 kts 318°
2026-05-09 00:22 40.55338 -73.57300 2971 ft 221 kts 304°
2026-05-09 00:23 40.56127 -73.58976 2939 ft 213 kts 303°
2026-05-09 00:23 40.56978 -73.60519 2783 ft 201 kts 311°
2026-05-09 00:23 40.57840 -73.61836 2532 ft 184 kts 311°
2026-05-09 00:23 40.58581 -73.63117 2236 ft 167 kts 303°
2026-05-09 00:24 40.59141 -73.64390 1944 ft 153 kts 302°
2026-05-09 00:24 40.59648 -73.65565 1699 ft 143 kts 301°
2026-05-09 00:24 40.60076 -73.66573 1420 ft 133 kts 301°
2026-05-09 00:24 40.60502 -73.67584 1097 ft 120 kts 306°
2026-05-09 00:25 40.60963 -73.68478 857 ft 119 kts 303°
2026-05-09 00:25 40.61347 -73.69295 776 ft 127 kts 301°
2026-05-09 00:25 40.61795 -73.70353 795 ft 136 kts 302°
2026-05-09 00:25 40.62309 -73.71478 728 ft 148 kts 302°
2026-05-09 00:26 40.62862 -73.72629 604 ft 147 kts 305°
2026-05-09 00:26 40.63398 -73.73736 431 ft 134 kts 300°
2026-05-09 00:26 40.63838 -73.74777 233 ft 125 kts 302°
2026-05-09 00:26 40.64286 -73.75748 96 ft 122 kts 303°
2026-05-09 00:27 40.64710 -73.76676 28 ft 111 kts 303°
2026-05-09 00:27 40.65033 -73.77377 28 ft 67 kts 299°
2026-05-09 00:27 40.65182 -73.77717 28 ft 27 kts 300°
2026-05-09 00:27 40.65225 -73.77874 28 ft 14 kts 264°
2026-05-09 00:28 40.65189 -73.77940 28 ft 8 kts 214°
2026-05-09 00:28 40.65164 -73.77959 28 ft 0 kts 209°
2026-05-09 00:28 40.65145 -73.77973 28 ft 6 kts 211°
2026-05-09 00:28 40.65108 -73.78005 28 ft 4 kts 213°
2026-05-09 00:29 40.65073 -73.78030 28 ft 8 kts 199°
2026-05-09 00:29 40.65014 -73.78001 28 ft 12 kts 134°
2026-05-09 00:29 40.64957 -73.77891 28 ft 11 kts 120°
2026-05-09 00:29 40.64933 -73.77844 28 ft 1 kts 152°
2026-05-09 00:30 40.64904 -73.77834 28 ft 5 kts 189°
2026-05-09 00:30 40.64869 -73.77851 28 ft 3 kts 201°
2026-05-09 00:30 40.64851 -73.77859 28 ft 2 kts 201°
2026-05-09 00:30 40.64850 -73.77860 28 ft 0 kts 201°